Change the Weather History Date:

Thursday, October 9, 2014

  Actual Average Record
Temperature  
Mean Temperature 40 °F -  
Max Temperature 56 °F 61 °F 84 °F (2010)
Min Temperature 25 °F 38 °F 24 °F (1976)
Degree Days  
Heating Degree Days 25    
Moisture  
Dew Point 30 °F    
Average Humidity 76    
Maximum Humidity 100    
Minimum Humidity 34    
Precipitation  
Precipitation 0.00 in - - ()
Sea Level Pressure  
Sea Level Pressure 30.14 in    
Wind  
Wind Speed 2 mph (WNW)    
Max Wind Speed 10 mph    
Max Gust Speed 17 mph    
Visibility 10 miles    
Events      
Averages and records for this station are not official NWS values.
T = Trace of Precipitation, MM = Missing Value Source: NWS Daily Summary

Daily Weather History Graph

Daily Weather History Graph

Search for Another Location

Airport or City:

Trip Planner

Search our weather history database for the weather conditions in past years. The results will help you decide how hot, cold, wet, or windy it might be!

Date:

Astronomy

Oct. 09, 2014 Rise Set
Actual Time 7:10 AM CDT 6:29 PM CDT
Civil Twilight 6:41 AM CDT 6:58 PM CDT
Nautical Twilight 6:07 AM CDT 7:31 PM CDT
Astronomical Twilight 5:34 AM CDT 8:05 PM CDT
Moon 7:22 PM CDT (10/9) 8:28 AM CDT (10/9)
Length of Visible Light 12h 17m
Length of Day
11h 19m
Full, 98% of the Moon is Illuminated
Oct 9
Full
Oct 15
Last Quarter
Oct 23
New
Oct 30
First Quarter
Nov 6
Full

Hourly Weather History & Observations

Time (CDT) Temp. Windchill Dew Point Humidity Pressure Visibility Wind Dir Wind Speed Gust Speed Precip Events Conditions
12:15 AM 34.7 °F - 31.6 °F 89% 30.07 in 10.0 mi Calm Calm - N/A   Clear
12:35 AM 34.3 °F - 31.6 °F 90% 30.08 in 10.0 mi Calm Calm - N/A   Clear
12:55 AM 32.5 °F - 31.1 °F 94% 30.08 in 10.0 mi Calm Calm - N/A   Clear
1:15 AM 33.1 °F - 31.8 °F 95% 30.08 in 10.0 mi Calm Calm - N/A   Clear
1:35 AM 32.0 °F - 30.9 °F 96% 30.10 in 10.0 mi Calm Calm - N/A   Clear
1:55 AM 31.5 °F - 30.6 °F 96% 30.10 in 10.0 mi Calm Calm - N/A   Clear
2:15 AM 30.9 °F - 30.0 °F 96% 30.09 in 10.0 mi Calm Calm - N/A   Clear
2:35 AM 30.0 °F - 29.3 °F 97% 30.09 in 10.0 mi Calm Calm - N/A   Clear
2:55 AM 29.3 °F - 29.1 °F 99% 30.09 in 10.0 mi Calm Calm - N/A   Clear
3:15 AM 29.3 °F - 28.9 °F 99% 30.10 in 10.0 mi Calm Calm - N/A   Clear
3:35 AM 28.6 °F - 28.0 °F 98% 30.10 in 10.0 mi Calm Calm - N/A   Clear
3:55 AM 28.0 °F - 27.5 °F 98% 30.10 in 10.0 mi Calm Calm - N/A   Clear
4:15 AM 27.9 °F - 27.5 °F 99% 30.10 in 10.0 mi Calm Calm - N/A   Clear
4:35 AM 27.9 °F - 27.9 °F 100% 30.10 in 10.0 mi Calm Calm - N/A   Clear
4:55 AM 27.5 °F - 27.3 °F 99% 30.10 in 10.0 mi Calm Calm - N/A   Clear
5:15 AM 27.5 °F - 27.5 °F 100% 30.10 in 10.0 mi Calm Calm - N/A   Clear
5:35 AM 25.5 °F - 24.8 °F 97% 30.10 in 10.0 mi Calm Calm - N/A   Clear
5:55 AM 27.0 °F - 26.4 °F 98% 30.10 in 10.0 mi Calm Calm - N/A   Clear
6:15 AM 27.1 °F - 26.8 °F 99% 30.11 in 10.0 mi Calm Calm - N/A   Clear
6:35 AM 25.5 °F - 25.2 °F 99% 30.12 in 10.0 mi Calm Calm - N/A   Clear
6:55 AM 25.5 °F - 25.0 °F 98% 30.14 in 10.0 mi Calm Calm - N/A   Clear
7:15 AM 25.5 °F - 25.2 °F 99% 30.15 in 10.0 mi Calm Calm - N/A   Clear
7:35 AM 25.7 °F - 25.3 °F 99% 30.15 in 10.0 mi Calm Calm - N/A   Clear
7:55 AM 27.7 °F - 27.1 °F 98% 30.16 in 10.0 mi Calm Calm - N/A   Clear
8:15 AM 30.0 °F - 28.9 °F 96% 30.16 in 10.0 mi Calm Calm - N/A   Clear
8:35 AM 32.2 °F - 30.9 °F 95% 30.17 in 10.0 mi Calm Calm - N/A   Clear
8:55 AM 35.1 °F - 33.1 °F 92% 30.17 in 10.0 mi Calm Calm - N/A   Clear
9:15 AM 38.8 °F - 33.1 °F 80% 30.18 in 10.0 mi Calm Calm - N/A   Clear
9:35 AM 41.9 °F 38.2 °F 32.9 °F 70% 30.18 in 10.0 mi West 5.8 mph - N/A   Clear
10:00 AM 45.0 °F 42.6 °F 31.8 °F 60% 30.18 in 10.0 mi West 4.6 mph - N/A   Clear
10:10 AM 45.9 °F 42.9 °F 30.9 °F 56% 30.18 in 10.0 mi WSW 5.8 mph - N/A   Clear
10:35 AM 46.9 °F - 30.6 °F 53% 30.18 in 10.0 mi WNW 6.9 mph - N/A   Clear
10:50 AM 47.5 °F - 30.0 °F 51% 30.18 in 10.0 mi NW 5.8 mph - N/A   Clear
11:35 AM 48.2 °F - 28.4 °F 46% 30.17 in 10.0 mi West 3.5 mph - N/A   Clear
11:55 AM 50.2 °F - 29.1 °F 44% 30.17 in 10.0 mi NNW 6.9 mph - N/A   Clear
12:10 PM 50.9 °F - 28.8 °F 43% 30.16 in 10.0 mi North 9.2 mph - N/A   Clear
12:40 PM 50.9 °F - 28.9 °F 43% 30.16 in 10.0 mi NW 5.8 mph - N/A   Clear
12:55 PM 52.2 °F - 29.3 °F 41% 30.15 in 10.0 mi NW 8.1 mph - N/A   Clear
1:10 PM 52.7 °F - 29.3 °F 41% 30.15 in 10.0 mi NW 8.1 mph - N/A   Clear
2:00 PM 54.0 °F - 30.7 °F 41% 30.13 in 10.0 mi NNW 5.8 mph - N/A   Clear
2:20 PM 54.3 °F - 28.9 °F 38% 30.13 in 10.0 mi West 6.9 mph 17.3 mph N/A   Clear
2:40 PM 55.2 °F - 28.9 °F 37% 30.12 in 10.0 mi NW 6.9 mph - N/A   Clear
3:15 PM 55.2 °F - 28.6 °F 36% 30.12 in 10.0 mi West 5.8 mph - N/A   Clear
3:35 PM 55.9 °F - 27.9 °F 34% 30.12 in 10.0 mi WNW 8.1 mph - N/A   Clear
3:55 PM 55.9 °F - 28.8 °F 35% 30.12 in 10.0 mi WNW 6.9 mph - N/A   Clear
4:15 PM 55.4 °F - 28.8 °F 36% 30.12 in 10.0 mi WNW 8.1 mph - N/A   Clear
4:35 PM 55.4 °F - 28.2 °F 35% 30.12 in 10.0 mi NW 10.4 mph - N/A   Clear
4:55 PM 55.0 °F - 29.3 °F 37% 30.12 in 10.0 mi WNW 6.9 mph - N/A   Clear
5:15 PM 54.5 °F - 29.3 °F 38% 30.12 in 10.0 mi WNW 6.9 mph - N/A   Clear
5:30 PM 54.5 °F - 30.2 °F 39% 30.12 in 10.0 mi NW 6.9 mph - N/A   Clear
5:50 PM 53.4 °F - 30.0 °F 41% 30.13 in 10.0 mi WNW 5.8 mph - N/A   Clear
6:15 PM 51.4 °F - 31.1 °F 46% 30.13 in 10.0 mi NW 4.6 mph - N/A   Clear
6:30 PM 49.8 °F - 31.8 °F 50% 30.14 in 10.0 mi NW 3.5 mph - N/A   Clear
6:50 PM 45.5 °F - 32.2 °F 60% 30.15 in 10.0 mi Calm Calm - N/A   Clear
7:15 PM 39.2 °F - 32.0 °F 75% 30.15 in 10.0 mi Calm Calm - N/A   Clear
7:35 PM 39.2 °F - 33.8 °F 81% 30.15 in 10.0 mi Calm Calm - N/A   Clear
7:55 PM 37.6 °F - 32.2 °F 81% 30.16 in 10.0 mi Calm Calm - N/A   Clear
8:15 PM 36.3 °F - 31.8 °F 84% 30.16 in 10.0 mi Calm Calm - N/A   Clear
8:35 PM 35.8 °F - 32.0 °F 86% 30.17 in 10.0 mi Calm Calm - N/A   Clear
8:55 PM 34.3 °F - 31.3 °F 89% 30.17 in 10.0 mi Calm Calm - N/A   Clear
9:15 PM 33.6 °F - 31.5 °F 92% 30.18 in 10.0 mi Calm Calm - N/A   Clear
9:35 PM 32.2 °F - 30.9 °F 95% 30.19 in 10.0 mi Calm Calm - N/A   Clear
9:55 PM 33.4 °F 29.1 °F 32.2 °F 95% 30.19 in 10.0 mi North 4.6 mph - N/A   Clear
10:15 PM 39.7 °F - 33.1 °F 77% 30.19 in 10.0 mi Calm Calm - N/A   Clear
10:35 PM 32.4 °F - 31.6 °F 97% 30.19 in 10.0 mi Calm Calm - N/A   Clear
10:55 PM 30.9 °F - 29.7 °F 95% 30.19 in 10.0 mi Calm Calm - N/A   Clear
11:15 PM 32.2 °F - 32.0 °F 99% 30.19 in 10.0 mi Calm Calm - N/A   Clear
11:35 PM 31.5 °F - 31.1 °F 99% 30.20 in 10.0 mi Calm Calm - N/A   Clear
11:55 PM 30.9 °F - 30.7 °F 99% 30.20 in 10.0 mi Calm Calm - N/A   Clear